Hourly Data Report for July 11, 2017

PITT MEADOWS CS
BRITISH COLUMBIA

49°12'29.964" N
122°41'24.076" W
5.00 m
1106178
71775
WMM

Download Data

Hourly Data (July 2017)
Hourly Data Report for July 11, 2017
TIME
LST
Temp Definition
°C
Dew Point Definition
°C
Rel Hum Definition
%
Precip. Amount Definition
mm

Wind Dir Definition
10's deg

Wind Spd Definition
km/h
Visibility Definition
km
Stn Press Definition
kPa
Hmdx Definition


Wind Chill Definition


Weather Definition


00:00 14.2 9.1 71 0.0 12 7   101.75     LegendNANA
01:00 13.1 8.8 75 0.0 12 6   101.77     LegendNANA
02:00 13.5 9.6 77 0.0 13 3   101.80     LegendNANA
03:00 13.8 9.5 75 0.0 10 1   101.83     LegendNANA
04:00 13.6 9.7 77 0.0 10 5   101.85     LegendNANA
05:00 13.8 9.9 77 0.0 10 6   101.87     LegendNANA
06:00 14.2 9.9 75 0.0 14 4   101.90     LegendNANA
07:00 14.8 9.9 73 0.0 20 4   101.93     LegendNANA
08:00 15.7 10.3 70 0.0 22 4   101.96     LegendNANA
09:00 17.2 9.9 62 0.0 22 4   101.94     LegendNANA
10:00 18.8 10.4 58 0.0 23 5   101.91     LegendNANA
11:00 20.9 11.1 53 0.0 19 4   101.88     LegendNANA
12:00 22.0 10.6 48 0.0 20 5   101.85     LegendNANA
13:00 23.4 11.5 47 0.0 25 7   101.80 25   LegendNANA
14:00 23.6 12.6 50 0.0 25 11   101.77 26   LegendNANA
15:00 23.2 11.0 46 0.0 20 7   101.74 25   LegendNANA
16:00 23.4 10.5 44 0.0 18 6   101.65 25   LegendNANA
17:00 23.2 11.1 46 0.0 22 7   101.60 25   LegendNANA
18:00 22.9 10.1 44 0.0 19 8   101.56     LegendNANA
19:00 20.2 10.5 54 0.0 20 6   101.57     LegendNANA
20:00 18.9 10.9 60 0.0 18 4   101.57     LegendNANA
21:00 18.2 11.1 63 0.0 13 2   101.60     LegendNANA
22:00 16.7 11.4 71 0.0 9 3   101.58     LegendNANA
23:00 15.7 11.2 75 0.0 11 7   101.56     LegendNANA

Notes on Data Quality.

Legend

  • E = Estimated
  • M = Missing
  • NA = Not Available*
  • [empty] = Indicates an unobserved value
Date modified: